Location: Melbourne
(37.8170°S, 144.9670°E)
Time: 10:46:08
(UTC+11:00)

CZ-3 R/B - Visible Passes

Search period start: 27 March 2015 00:00
Search period end: 05 April 2015 23:00
Orbit: 184 x 13636 km, 28.5° (Epoch: 26 March)

Date Brightness Start Highest point End Pass type
(mag) Time Alt. Az. Time Alt. Az. Time Alt. Az.
27 Mar 6.2 03:43:33 10° W 05:47:17 54° NW 06:26:02 10° NNE visible
27 Mar 5.5 19:56:16 10° NNW 20:16:42 41° NE 22:00:45 10° ESE visible
28 Mar 6.5 00:25:04 10° WNW 01:45:53 76° N 03:23:09 10° ENE visible
28 Mar 5.9 05:36:32 10° WSW 07:24:52 34° NW 07:51:18 10° N visible
28 Mar 5.9 21:22:07 10° NW 21:51:19 61° NNE 23:58:21 10° E visible
29 Mar 6.5 01:59:09 10° W 03:51:13 68° NNW 04:53:52 10° NE visible
29 Mar 5.3 18:28:27 10° NNE 18:41:08 22° ENE 19:34:03 10° ESE visible
29 Mar 6.2 22:49:09 10° WNW 23:35:13 73° NNE 01:41:00 10° ENE visible
30 Mar 6.2 03:37:41 10° W 05:39:04 52° NW 06:20:13 10° NNE visible
30 Mar 5.5 19:49:12 10° NNW 20:08:12 43° NE 21:49:26 10° ESE visible
31 Mar 6.5 00:17:28 10° WNW 01:33:26 76° N 03:14:35 10° ENE visible
31 Mar 6.0 05:25:39 10° WSW 07:14:03 32° NW 07:42:08 10° N visible
31 Mar 5.8 21:12:11 10° NW 21:38:59 62° NNE 23:44:52 10° E visible
01 Apr 6.6 01:47:47 10° W 03:34:30 67° NNW 04:42:20 10° NE visible
01 Apr 6.1 07:45:37 10° W 08:42:57 13° WNW 08:52:22 10° NW visible
01 Apr 5.2 18:15:48 10° NNE 18:27:28 22° ENE 19:14:19 10° ESE visible
01 Apr 6.2 22:36:04 10° WNW 23:17:38 73° NNE 01:25:25 10° ENE visible
02 Apr 6.3 03:21:44 10° W 05:20:21 51° NW 06:05:44 10° NNE visible
02 Apr 5.4 19:33:50 10° NNW 19:50:55 42° NE 21:24:52 10° ESE visible
03 Apr 6.4 00:00:53 10° WNW 01:08:41 76° N 02:56:39 10° ENE visible
03 Apr 6.1 05:03:30 10° WSW 06:53:36 32° NW 07:24:42 10° N visible
03 Apr 5.7 20:53:45 10° NW 21:17:23 61° NNE 23:19:45 10° E visible
04 Apr 6.6 01:27:11 10° W 03:05:29 68° NNW 04:21:49 10° NE visible
04 Apr 6.1 07:11:23 10° W 08:20:38 14° WNW 08:32:58 10° NW visible
04 Apr 6.1 22:14:19 10° WNW 22:50:01 73° NNE 00:59:27 10° ENE visible
05 Apr 6.4 02:56:13 10° W 03:50:34 53° NW 04:42:35 10° NNE visible
05 Apr 5.3 18:10:12 10° NNW 18:25:05 40° NE 19:46:27 10° ESE visible
